| time (UTC) | temp F | wind direction | speed knots | gust knots | rain 1hr in | rain 24hr in | rain mn in | humidity % | barometer mb |
| 20260508090005 | 56 | 127 | 1.7 | 7.0 | 0.00 | 0.00 | 0.00 | 72 | 1014.7 |
| 20260508083005 | 55 | 111 | 2.6 | 7.8 | 0.00 | 0.00 | 0.00 | 77 | 1014.6 |
| 20260508081503 | 55 | 118 | 1.7 | 10.4 | 0.00 | 0.00 | 0.00 | 78 | 1014.6 |
| 20260508080005 | 54 | 141 | 0.9 | 4.3 | 0.00 | 0.01 | 0.00 | 79 | 1014.6 |
| 20260508074504 | 53 | 30 | 1.7 | 7.0 | 0.00 | 0.01 | 0.00 | 81 | 1014.4 |
| 20260508073006 | 52 | 1 | 2.6 | 7.0 | 0.00 | 0.01 | 0.00 | 83 | 1014.3 |
| 20260508071504 | 51 | 6 | 2.6 | 5.2 | 0.00 | 0.01 | 0.00 | 84 | 1014.2 |
| 20260508070006 | 51 | 8 | 1.7 | 7.0 | 0.00 | 0.01 | 0.00 | 85 | 1014.3 |
| 20260508064504 | 50 | 34 | 0.9 | 6.1 | 0.00 | 0.01 | 0.00 | 87 | 1014.2 |
| 20260508063005 | 48 | 57 | 0.9 | 5.2 | 0.00 | 0.01 | 0.00 | 88 | 1014.1 |
| 20260508060005 | 48 | 335 | 1.7 | 5.2 | 0.00 | 0.01 | 0.00 | 89 | 1013.7 |
| 20260508054504 | 47 | 348 | 1.7 | 7.8 | 0.00 | 0.01 | 0.00 | 90 | 1013.6 |
| 20260508051504 | 46 | 313 | 3.5 | 6.1 | 0.00 | 0.01 | 0.00 | 89 | 1013.3 |
| 20260508050005 | 46 | 309 | 3.5 | 8.7 | 0.00 | 0.01 | 0.00 | 88 | 1013.3 |
| 20260508044504 | 47 | 311 | 0.9 | 5.2 | 0.00 | 0.01 | 0.00 | 89 | 1013.3 |
| 20260508043005 | 47 | 0 | 0.0 | 0.0 | 0.00 | 0.01 | 0.00 | 88 | 1013.5 |
| 20260508041504 | 47 | 0 | 0.0 | 0.0 | 0.00 | 0.01 | 0.00 | 89 | 1013.5 |
| 20260508040006 | 47 | 0 | 0.0 | 0.0 | 0.00 | 0.01 | 0.00 | 88 | 1013.5 |
| 20260508034504 | 47 | 0 | 0.0 | 0.0 | 0.00 | 0.01 | 0.00 | 88 | 1013.4 |
| 20260508033005 | 47 | 0 | 0.0 | 0.0 | 0.00 | 0.01 | 0.00 | 88 | 1013.3 |
| 20260508031503 | 47 | 0 | 0.0 | 0.0 | 0.00 | 0.01 | 0.00 | 87 | 1013.3 |
| 20260508030005 | 47 | 0 | 0.0 | 0.0 | 0.00 | 0.01 | 0.00 | 87 | 1013.4 |
| 20260508024504 | 47 | 0 | 0.0 | 0.0 | 0.00 | 0.01 | 0.00 | 87 | 1013.4 |
| 20260508021503 | 48 | 0 | 0.0 | 0.0 | 0.00 | 0.01 | 0.00 | 86 | 1013.2 |
| 20260508020005 | 48 | 0 | 0.0 | 0.0 | 0.00 | 0.01 | 0.00 | 86 | 1013.2 |
| 20260508014503 | 48 | 0 | 0.0 | 0.0 | 0.00 | 0.01 | 0.00 | 86 | 1013.3 |
| 20260508013006 | 49 | 0 | 0.9 | 0.0 | 0.00 | 0.01 | 0.00 | 86 | 1013.3 |
| 20260508011504 | 49 | 313 | 0.9 | 4.3 | 0.00 | 0.01 | 0.00 | 85 | 1013.2 |
| 20260508010006 | 49 | 313 | 0.0 | 1.7 | 0.00 | 0.01 | 0.00 | 85 | 1013.3 |
| 20260508004503 | 49 | 313 | 0.0 | 3.5 | 0.00 | 0.01 | 0.00 | 85 | 1013.5 |
| 20260508003006 | 49 | 313 | 0.0 | 1.7 | 0.00 | 0.01 | 0.00 | 85 | 1013.6 |
| 20260508001503 | 49 | 313 | 0.0 | 1.7 | 0.00 | 0.01 | 0.00 | 84 | 1013.7 |
| 20260507234504 | 49 | 300 | 0.0 | 2.6 | 0.00 | 0.01 | 0.00 | 83 | 1013.8 |
| 20260507231503 | 50 | 0 | 0.0 | 0.0 | 0.00 | 0.01 | 0.00 | 81 | 1013.7 |
| 20260507230007 | 50 | 0 | 0.0 | 0.0 | 0.00 | 0.01 | 0.00 | 81 | 1013.7 |
| 20260507224504 | 51 | 0 | 0.0 | 0.0 | 0.00 | 0.01 | 0.01 | 81 | 1013.6 |
| 20260507223006 | 51 | 0 | 0.0 | 0.0 | 0.00 | 0.01 | 0.01 | 80 | 1013.6 |
| 20260507221504 | 51 | 235 | 0.0 | 1.7 | 0.00 | 0.01 | 0.01 | 79 | 1013.6 |
| 20260507214503 | 51 | 0 | 0.0 | 0.0 | 0.00 | 0.01 | 0.01 | 78 | 1013.5 |
| 20260507213006 | 52 | 0 | 0.0 | 0.0 | 0.00 | 0.01 | 0.01 | 77 | 1013.4 |
| 20260507211504 | 52 | 234 | 0.0 | 7.8 | 0.00 | 0.01 | 0.01 | 77 | 1013.4 |
| 20260507210005 | 52 | 204 | 0.9 | 7.8 | 0.00 | 0.01 | 0.01 | 76 | 1013.2 |
| 20260507201503 | 53 | 194 | 0.0 | 3.5 | 0.00 | 0.01 | 0.01 | 73 | 1012.8 |
| 20260507193005 | 54 | 173 | 0.0 | 2.6 | 0.00 | 0.01 | 0.01 | 72 | 1012.6 |
| 20260507191505 | 54 | 219 | 0.9 | 5.2 | 0.00 | 0.01 | 0.01 | 71 | 1012.5 |
| 20260507190007 | 54 | 210 | 2.6 | 10.4 | 0.00 | 0.01 | 0.01 | 70 | 1012.4 |
| 20260507183007 | 55 | 212 | 1.7 | 9.6 | 0.00 | 0.01 | 0.01 | 70 | 1012.3 |
| 20260507181505 | 55 | 209 | 2.6 | 7.0 | 0.00 | 0.01 | 0.01 | 68 | 1012.3 |
| 20260507174505 | 55 | 200 | 3.5 | 13.9 | 0.00 | 0.01 | 0.01 | 67 | 1012.3 |
| 20260507173007 | 56 | 204 | 3.5 | 12.2 | 0.00 | 0.01 | 0.01 | 69 | 1012.3 |
| 20260507171504 | 56 | 207 | 2.6 | 11.3 | 0.00 | 0.01 | 0.01 | 69 | 1012.4 |
| 20260507170007 | 56 | 196 | 2.6 | 13.9 | 0.00 | 0.01 | 0.01 | 69 | 1012.5 |
| 20260507164505 | 57 | 181 | 3.5 | 10.4 | 0.00 | 0.01 | 0.01 | 70 | 1012.4 |
| 20260507163007 | 57 | 202 | 2.6 | 12.2 | 0.00 | 0.01 | 0.01 | 66 | 1012.4 |
| 20260507161505 | 57 | 206 | 4.3 | 16.5 | 0.00 | 0.01 | 0.01 | 69 | 1012.3 |
| 20260507160006 | 57 | 205 | 3.5 | 20.0 | 0.00 | 0.01 | 0.01 | 68 | 1012.4 |
| 20260507154505 | 58 | 208 | 3.5 | 13.0 | 0.00 | 0.01 | 0.01 | 67 | 1012.4 |
| 20260507153006 | 58 | 187 | 3.5 | 11.3 | 0.00 | 0.01 | 0.01 | 67 | 1012.3 |
| 20260507151505 | 58 | 189 | 5.2 | 18.2 | 0.00 | 0.01 | 0.01 | 67 | 1012.3 |
| 20260507150007 | 59 | 197 | 3.5 | 15.6 | 0.00 | 0.01 | 0.01 | 67 | 1012.3 |
| 20260507144505 | 58 | 184 | 5.2 | 16.5 | 0.00 | 0.01 | 0.01 | 63 | 1012.4 |
| 20260507143007 | 58 | 205 | 7.8 | 19.1 | 0.00 | 0.01 | 0.01 | 65 | 1012.5 |
| 20260507141505 | 59 | 209 | 5.2 | 15.6 | 0.00 | 0.01 | 0.01 | 60 | 1012.4 |
| 20260507140007 | 58 | 207 | 8.7 | 17.4 | 0.00 | 0.01 | 0.01 | 61 | 1012.6 |
| 20260507134504 | 57 | 203 | 9.6 | 21.7 | 0.00 | 0.01 | 0.01 | 62 | 1012.5 |
| 20260507133006 | 57 | 206 | 7.8 | 25.2 | 0.00 | 0.01 | 0.01 | 66 | 1012.5 |
| 20260507131505 | 57 | 204 | 8.7 | 18.2 | 0.00 | 0.01 | 0.01 | 66 | 1012.6 |
| 20260507130007 | 57 | 205 | 9.6 | 25.2 | 0.00 | 0.01 | 0.01 | 66 | 1012.6 |
| 20260507124504 | 56 | 204 | 8.7 | 20.0 | 0.00 | 0.01 | 0.01 | 64 | 1012.6 |
| 20260507123006 | 56 | 206 | 7.0 | 19.1 | 0.00 | 0.01 | 0.01 | 66 | 1012.6 |
| 20260507121505 | 57 | 204 | 7.8 | 20.9 | 0.00 | 0.01 | 0.01 | 66 | 1012.8 |
| 20260507120007 | 56 | 204 | 7.8 | 23.5 | 0.00 | 0.01 | 0.01 | 67 | 1012.7 |
| 20260507114505 | 57 | 207 | 7.8 | 26.9 | 0.00 | 0.01 | 0.01 | 65 | 1012.7 |
| 20260507113007 | 56 | 205 | 7.0 | 21.7 | 0.00 | 0.01 | 0.01 | 68 | 1012.6 |
| 20260507110006 | 56 | 208 | 6.1 | 17.4 | 0.00 | 0.01 | 0.01 | 69 | 1012.7 |
| 20260507101507 | 56 | 202 | 1.7 | 12.2 | 0.00 | 0.01 | 0.01 | 77 | 1012.8 |
| 20260507100006 | 56 | 202 | 0.9 | 5.2 | 0.00 | 0.01 | 0.01 | 80 | 1012.7 |
| 20260507094505 | 54 | 201 | 0.9 | 9.6 | 0.00 | 0.01 | 0.01 | 84 | 1012.7 |
| 20260507093007 | 53 | 193 | 0.9 | 5.2 | 0.00 | 0.01 | 0.01 | 84 | 1012.7 |